Location: Newark
(42.8481°N, 0.4872°E)
Time: 07:21:38
(UTC+00:00)

Transit 2A Rocket - Pass Details

Date: 04 November 2020
Orbit: 588 x 914 km, 66.7° (Epoch: 29 November)

Event Time Altitude Azimuth Distance (km) Brightness Sun altitude
Rises 17:56:13 0° 315° (NW) 3,189 8.8 -13.2°
Reaches altitude 10° 17:59:19 10° 297° (WNW) 2,193 8.2 -13.8°
Maximum altitude 18:02:39 18° 255° (WSW) 1,633 7.8 -14.4°
Drops below altitude 10° 18:05:48 10° 212° (SSW) 2,051 7.8 -15.0°
Sets 18:08:35 0° 193° (SSW) 2,905 8.3 -15.5°
